TimeEDT,TemperatureF,Dew PointF,Humidity,Sea Level PressureIn,VisibilityMPH,Wind Direction,Wind SpeedMPH,Gust SpeedMPH,PrecipitationIn,Events,Conditions,WindDirDegrees,DateUTC
12:51 AM,55.9,55.0,97,30.08,10.0,Calm,Calm,-,N/A,,Clear,0,2013-06-15 04:51:00
1:51 AM,55.0,55.0,100,30.09,10.0,SSE,6.9,-,N/A,,Clear,160,2013-06-15 05:51:00
2:51 AM,54.0,54.0,100,30.08,10.0,Calm,Calm,-,N/A,,Clear,0,2013-06-15 06:51:00
3:51 AM,54.0,54.0,100,30.06,10.0,Calm,Calm,-,N/A,,Clear,0,2013-06-15 07:51:00
4:51 AM,51.1,51.1,100,30.08,6.0,Calm,Calm,-,N/A,,Clear,0,2013-06-15 08:51:00
5:51 AM,53.1,52.0,96,30.11,10.0,South,4.6,-,N/A,,Clear,180,2013-06-15 09:51:00
6:51 AM,55.0,55.0,100,30.10,10.0,Calm,Calm,-,N/A,,Clear,0,2013-06-15 10:51:00
7:51 AM,61.0,57.9,90,30.10,10.0,Calm,Calm,-,N/A,,Clear,0,2013-06-15 11:51:00
8:51 AM,62.1,57.9,86,30.14,10.0,Calm,Calm,-,N/A,,Clear,0,2013-06-15 12:51:00
9:51 AM,66.9,59.0,76,30.13,10.0,Variable,4.6,-,N/A,,Partly Cloudy,0,2013-06-15 13:51:00
10:51 AM,70.0,55.0,59,30.13,10.0,West,8.1,-,N/A,,Partly Cloudy,260,2013-06-15 14:51:00
11:51 AM,71.1,55.9,59,30.13,10.0,NNW,8.1,-,N/A,,Scattered Clouds,330,2013-06-15 15:51:00
12:51 PM,72.0,54.0,53,30.12,10.0,WNW,8.1,-,N/A,,Mostly Cloudy,300,2013-06-15 16:51:00
1:51 PM,73.0,53.1,49,30.11,10.0,NW,9.2,-,N/A,,Scattered Clouds,310,2013-06-15 17:51:00
2:51 PM,73.0,53.1,49,30.09,10.0,Calm,Calm,-,N/A,,Mostly Cloudy,0,2013-06-15 18:51:00
3:51 PM,75.0,52.0,44,30.08,10.0,Variable,6.9,-,N/A,,Partly Cloudy,0,2013-06-15 19:51:00
4:51 PM,73.0,54.0,51,30.09,10.0,SW,8.1,-,N/A,,Partly Cloudy,220,2013-06-15 20:51:00
5:51 PM,75.0,55.0,50,30.07,10.0,Variable,5.8,-,N/A,,Clear,0,2013-06-15 21:51:00
6:51 PM,73.0,55.0,53,30.08,10.0,SW,9.2,-,N/A,,Clear,230,2013-06-15 22:51:00
7:51 PM,71.1,51.1,49,30.07,10.0,West,5.8,-,N/A,,Clear,260,2013-06-15 23:51:00
8:51 PM,64.9,55.0,70,30.06,10.0,Calm,Calm,-,N/A,,Clear,0,2013-06-16 00:51:00
9:51 PM,63.0,55.9,78,30.06,10.0,Calm,Calm,-,N/A,,Clear,0,2013-06-16 01:51:00
10:51 PM,60.1,55.0,83,30.07,10.0,SSE,4.6,-,N/A,,Clear,160,2013-06-16 02:51:00
11:51 PM,61.0,55.0,81,30.07,10.0,SSE,4.6,-,N/A,,Partly Cloudy,150,2013-06-16 03:51:00